Simultaneous Nadir Overpasses (SNOs) Predictions

Prediction of SNOs between METOP-B and TERRA Satellite Orbit:

Table of predicted SNOs for the next 14.0 days since TLE Epoch: 1/25/2020
Index Date (METOP-B) Time (METOP-B) Lat,Lon (METOP-B) SZA (METOP-B ) Date (TERRA) Time (TERRA) Lat,Lon (TERRA) SZA (TERRA ) Distance(km) Time Diff (sec)
1 01/27/2020 14:11:28 81.29, 13.83 102.05 01/27/2020 14:11:58 81.28, 13.82 102.06 0.47 30
2 01/27/2020 15:02:08 -81.29,-178.41 77.91 01/27/2020 15:01:24 -81.30,-178.26 77.92 2.53 44
3 01/30/2020 09:45:51 81.29, 80.49 101.33 01/30/2020 09:46:17 81.29, 80.30 101.31 3.17 26
4 01/30/2020 10:36:31 -81.30,-111.72 78.64 01/30/2020 10:35:43 -81.30,-111.75 78.66 0.88 48
5 02/02/2020 05:20:15 81.29, 146.73 100.51 02/02/2020 05:20:36 81.29, 146.75 100.52 0.30 21
6 02/02/2020 06:10:56 -81.29, -45.83 79.49 02/02/2020 06:10:03 -81.29, -45.65 79.50 3.04 53
7 02/05/2020 00:54:37 81.29,-146.65 99.71 02/05/2020 00:54:54 81.29,-146.83 99.69 3.12 17
8 02/05/2020 01:45:18 -81.29, 20.83 80.29 02/05/2020 01:44:21 -81.29, 20.81 80.32 0.76 57
9 02/07/2020 20:29:01 81.29, -80.43 98.82 02/07/2020 20:29:13 81.29, -80.44 98.83 0.28 12




NCC Satellite Simultaneous Nadir Overpasses (SNOs) Prediction Service
